This demonstration page uses our WeatherBlox Daily Observations layout. Learn more.

Left ArrowRight Arrow

Hourly Observations for October 30, 2019

Temp ( °F °C ) Dew Point ( °F °C ) Humidity (%) Winds ( mph kmh ) Pressure ( in mb ) Visibility ( mi km ) Precip ( " mm )
12:53 am 00:53 Mostly Clear 50 10 49 9.4 96 96 Calm 30.20 1023 7 11 0.00 0.00
1:53 am 01:53 Partly Cloudy 52 11.1 50 10 93 93 N 6 9 30.21 1023 9 14 0.00 0.00
2:03 am 02:03 Mostly Cloudy 52 11.1 50 10 93 93 N 5 7 30.21 1023 9 14 0.00 0.00
2:53 am 02:53 Mostly Cloudy 52 11.1 50 10 93 93 N 8 13 30.19 1023 9 14 0.00 0.00
3:53 am 03:53 Cloudy 52 11.1 49 9.4 89 89 NE 5 7 30.18 1022 9 14 0.00 0.00
4:40 am 04:40 Cloudy 52 11.1 50 10 93 93 ENE 3 6 30.19 1022 8 13 0.00 0.00
4:53 am 04:53 Cloudy 52 11.1 50 10 93 93 NNE 5 7 30.18 1022 8 13 0.00 0.00
5:53 am 05:53 Cloudy 53 11.7 50 10 89 89 ENE 3 6 30.17 1022 7 11 0.00 0.00
6:06 am 06:06 Cloudy with Mist and Fog 53 11.7 50 10 89 89 E 5 7 30.17 1022 6 10 0.00 0.00
6:23 am 06:23 Cloudy with Mist and Fog 53 11.7 50 10 89 89 VRB 3 6 30.18 1022 5 8 0.00 0.00
6:53 am 06:53 Cloudy 53 11.7 50 10 89 89 NE 6 9 30.17 1022 7 11 0.00 0.00
7:53 am 07:53 Cloudy 53 11.7 50 10 89 89 E 8 13 30.16 1021 7 11 0.00 0.00
8:27 am 08:27 Cloudy 53 11.7 51 10.6 93 93 ENE 7 11 30.15 1021 7 11 0.00 0.00
8:53 am 08:53 Cloudy with Mist and Fog 53 11.7 51 10.6 93 93 E 7 11 30.16 1021 6 10 0.00 0.00
9:11 am 09:11 Cloudy with Mist and Fog 54 12.2 51 10.6 90 90 E 9 15 30.16 1021 6 10 0.00 0.00
9:53 am 09:53 Mostly Cloudy with Mist and Fog 54 12.2 50 10 87 87 ENE 7 11 30.14 1021 6 10 0.00 0.00
10:53 am 10:53 Cloudy with Light Rain 54 12.2 51 10.6 90 90 E 9 15 30.09 1019 5 8 0.00 0.00
11:53 am 11:53 Cloudy with Light Rain 55 12.8 52 11.1 90 90 E 6 9 30.08 1019 5 8 0.01 0.25
12:39 pm 12:39 Cloudy 56 13.3 52 11.1 87 87 ENE 6 9 30.08 1019 7 11 0.00 0.00
12:53 pm 12:53 Cloudy with Light Rain 56 13.3 53 11.7 90 90 NE 6 9 30.06 1018 6 10 0.00 0.00
1:13 pm 13:13 Cloudy with Light Rain 56 13.3 53 11.7 90 90 NE 6 9 30.05 1018 5 8 0.00 0.00
1:53 pm 13:53 Cloudy with Light Rain 56 13.3 53 11.7 90 90 NNE 5 7 30.02 1017 4 6 0.03 0.76
2:00 pm 14:00 Cloudy with Light Rain 56 13.3 54 12.2 93 93 NE 3 6 30.02 1017 5 8 0.00 0.00
2:30 pm 14:30 Cloudy with Light Rain 56 13.3 54 12.2 93 93 ENE 5 7 30.01 1016 3 5 0.01 0.25
2:41 pm 14:41 Cloudy with Light Rain 56 13.3 55 12.8 97 97 E 6 9 29.99 1016 3 4 0.01 0.25
2:48 pm 14:48 Cloudy with Light Rain 55 13 55 13 100 100 ENE 6 9 29.99 1016 4 6 0.01 0.25
2:53 pm 14:53 Cloudy with Light Rain 56 13.3 55 12.8 97 97 E 7 11 29.99 1016 4 6 0.01 0.25
3:50 pm 15:50 Cloudy with Rain 55 13 54 12 94 94 ESE 5 7 29.96 1015 3 4 0.02 0.51
3:53 pm 15:53 Cloudy with Rain 56 13.3 55 12.8 97 97 ESE 5 7 29.96 1014 2 3 0.03 0.76
4:12 pm 16:12 Cloudy with Rain 56 13.3 55 12.8 97 97 ESE 6 9 29.94 1014 2 3 0.05 1.27
4:28 pm 16:28 Cloudy with Light Rain 56 13.3 55 12.8 97 97 ESE 5 7 29.94 1014 3 5 0.06 1.52
4:39 pm 16:39 Cloudy with Rain 56 13.3 55 12.8 97 97 SE 5 7 29.94 1014 3 5 0.08 2.03
4:53 pm 16:53 Cloudy with Rain 56 13.3 56 13.3 100 100 ESE 5 7 29.92 1013 2 3 0.11 2.79
5:09 pm 17:09 Cloudy with Light Rain 57 13.9 56 13.3 96 96 ESE 6 9 29.91 1013 3 5 0.01 0.25
5:32 pm 17:32 Cloudy with Light Rain 57 13.9 56 13.3 96 96 E 5 7 29.91 1013 5 8 0.02 0.51
5:53 pm 17:53 Cloudy with Light Rain 57 13.9 56 13.3 96 96 Calm 29.91 1013 5 8 0.02 0.51
6:53 pm 18:53 Cloudy with Light Rain 57 13.9 57 13.9 100 100 Calm 29.91 1013 7 11 0.03 0.76
7:53 pm 19:53 Cloudy with Mist and Fog 57 13.9 57 13.9 100 100 Calm 29.89 1012 5 8 0.02 0.51
8:53 pm 20:53 Cloudy with Mist and Fog 58 14.4 57 13.9 97 97 Calm 29.86 1011 5 8 0.00 0.00
9:53 pm 21:53 Cloudy with Mist and Fog 58 14.4 57 13.9 97 97 Calm 29.87 1012 4 6 0.00 0.00
10:34 pm 22:34 Cloudy with Mist and Fog 58 14.4 57 13.9 97 97 W 3 6 29.88 1012 2 3 0.00 0.00
10:39 pm 22:39 Cloudy with Mist and Fog 58 14.4 57 13.9 97 97 W 3 6 29.88 1012 2 2 0.00 0.00
10:53 pm 22:53 Cloudy with Mist and Fog 57 13.9 57 13.9 100 100 WNW 3 6 29.86 1011 1 2 0.00 0.00
11:24 pm 23:24 Cloudy with Mist and Fog 57 13.9 57 13.9 100 100 Calm 29.87 1011 1 1 0.00 0.00
11:31 pm 23:31 Cloudy with Mist and Fog 57 13.9 57 13.9 100 100 Calm 29.87 1011 1 2 0.00 0.00
11:53 pm 23:53 Mostly Cloudy with Mist and Fog 57 13.9 57 13.9 100 100 W 5 7 29.87 1011 1 1 0.00 0.00

Powered by AerisWeather